GEFSSGP_con_prob3kmehi_216.txt.gz
EHI
5 3 1 2 2 1 0 0 0 0 1 1 0 0 0 0 0 0 0 0 0 0 0 1 1 1 0 0 0 0 0 0 0 0 0 0 1 2 2 2 2 2 1 0 0 0 0 0 0
2 1 1 1 1 0 0 0 0 1 2 2 1 0 0 0 0 0 0 0 0 0 0 0 0 0 0 0 0 0 0 0 0 0 0 0 1 1 2 1 1 1 0 0 0 0 0 0 0
0 0 0 0 0 0 0 0 0 2 3 2 1 0 0 1 1 0 0 0 0 0 0 0 0 0 0 0 0 0 0 0 0 0 1 1 2 2 2 1 0 0 0 0 0 0 0 0 0
0 0 0 0 0 0 0 0 0 1 2 2 1 0 1 2 3 2 1 0 0 0 0 0 0 0 0 0 0 0 0 0 0 0 1 2 2 2 1 1 0 0 0 0 0 0 0 0 0
0 0 0 0 0 0 0 0 0 0 1 1 0 0 1 5 8 6 2 0 0 0 0 0 1 1 0 0 0 0 0 0 0 0 0 1 1 1 0 0 0 0 0 0 0 0 0 0 0
1 1 1 0 0 0 0 0 0 0 0 0 0 0 2 8 13 9 2 0 0 0 0 0 1 1 0 0 0 0 0 0 0 0 0 0 0 0 0 0 0 0 1 0 0 0 0 1 1
2 2 1 0 0 0 0 0 1 1 1 0 0 0 2 8 14 12 4 1 0 0 0 0 1 1 0 0 0 0 0 0 0 0 0 0 0 0 0 0 0 0 0 0 0 0 1 2 2
1 1 0 0 0 0 0 1 3 3 2 1 0 0 2 8 15 16 9 4 2 0 0 0 0 0 0 0 0 0 0 0 0 0 0 0 0 0 0 0 0 0 0 0 0 0 1 2 3
0 0 0 0 0 1 1 1 3 4 4 2 0 1 3 10 19 21 16 9 4 1 0 0 0 0 0 0 0 0 0 0 0 0 0 0 0 0 0 1 1 0 0 0 0 0 1 2 1
0 0 0 0 1 2 2 2 2 4 5 3 2 2 5 12 20 23 19 13 7 3 1 1 0 0 0 0 0 0 0 0 0 0 0 0 0 0 0 1 1 1 0 0 0 0 1 1 0
0 0 0 1 2 3 2 1 1 3 4 4 3 4 7 12 16 19 19 16 11 6 2 1 0 0 1 1 1 0 0 0 0 0 0 0 0 0 0 1 1 1 0 0 0 0 0 0 0
0 0 0 1 2 2 1 1 3 4 4 4 4 5 8 11 12 13 16 16 15 13 9 3 1 2 3 3 1 0 0 0 0 0 0 0 0 0 0 0 0 0 0 0 0 0 0 0 0
0 0 0 0 1 1 2 3 4 5 5 5 5 5 7 10 11 12 15 17 19 20 16 9 5 6 6 4 1 0 0 0 0 0 0 0 0 0 0 0 0 0 0 0 0 0 0 0 0
0 0 0 0 0 1 2 3 4 6 7 7 5 5 8 13 14 16 17 18 20 21 19 13 12 13 10 5 2 1 0 1 0 0 0 1 0 0 0 0 0 0 0 0 0 0 0 0 0
0 0 0 0 0 0 1 3 6 8 8 7 6 7 13 18 20 22 20 18 20 22 20 17 17 16 12 7 3 1 0 0 0 0 1 1 0 0 0 0 0 0 0 0 0 0 0 0 0
0 0 0 0 0 0 0 3 7 9 8 7 7 11 18 23 26 28 25 21 22 25 22 19 17 15 11 7 4 2 1 0 0 0 1 0 0 0 0 0 0 0 0 0 0 0 0 0 0
0 0 0 0 0 0 0 3 7 9 9 8 9 13 20 27 33 35 33 27 25 24 22 18 15 13 10 7 5 3 2 1 1 1 1 1 1 0 0 0 0 0 0 0 0 0 0 0 0
0 0 0 0 0 0 0 2 5 8 10 10 10 14 22 30 38 41 38 31 25 23 20 18 16 15 12 9 7 5 3 1 1 2 3 3 3 1 0 0 0 0 0 0 0 0 0 0 0
0 0 0 0 0 0 0 1 3 5 10 13 14 18 25 32 39 42 41 36 30 25 23 21 19 17 14 10 7 6 4 2 1 2 3 4 4 3 2 2 1 0 0 0 0 0 0 0 0
0 0 0 0 0 1 1 1 2 4 8 15 21 26 30 34 38 41 45 46 40 33 28 25 22 19 15 10 6 5 4 2 1 1 1 3 4 5 5 5 3 1 1 1 1 1 1 1 0
0 0 0 0 0 1 2 2 3 4 7 14 24 32 35 37 40 44 48 51 47 38 32 29 25 21 16 10 7 5 4 1 0 0 1 2 4 5 7 7 5 4 4 4 3 3 2 2 1
0 0 0 0 0 1 2 3 3 4 7 13 22 33 40 42 46 49 50 50 47 40 34 31 28 24 18 11 7 6 4 1 0 1 3 4 4 5 7 8 6 6 6 6 5 4 4 4 4
0 0 0 0 0 0 1 1 2 5 9 14 22 34 44 49 52 53 51 49 46 41 37 33 30 28 23 15 8 6 5 3 2 4 5 5 4 4 6 7 6 6 6 6 6 6 6 6 6
0 0 0 0 0 0 0 0 2 5 10 17 25 35 46 53 55 54 51 49 47 45 42 38 36 33 28 21 11 7 7 6 7 9 8 5 3 3 4 5 5 5 6 6 6 6 6 6 6
0 0 0 0 0 0 0 0 2 4 9 18 27 36 44 52 57 57 54 53 51 51 49 45 43 38 32 25 17 10 9 9 10 11 8 5 3 3 3 4 5 6 6 6 6 6 6 6 6
0 0 0 0 0 0 0 0 1 4 8 17 28 37 44 50 55 60 60 56 54 54 54 52 48 42 35 30 24 17 11 9 9 8 7 5 3 3 4 5 7 8 7 7 6 6 6 6 6
0 0 0 0 0 0 0 0 1 5 9 17 30 39 43 46 50 56 57 52 50 53 56 55 50 44 38 33 26 18 12 9 8 8 7 5 4 4 5 6 8 9 8 7 6 6 6 6 6
0 0 0 0 0 0 0 0 2 6 10 17 30 40 43 44 46 49 49 46 46 51 54 54 50 43 38 31 23 17 13 11 9 8 7 5 5 5 6 7 7 7 7 6 6 6 6 6 6
0 0 0 0 0 0 0 0 2 6 10 17 28 38 42 43 44 48 49 48 48 51 53 52 48 41 35 29 23 18 14 12 10 7 5 5 5 6 7 6 5 5 4 4 5 6 6 6 6
0 0 0 0 0 0 0 0 2 5 9 16 26 35 41 41 44 49 52 52 52 52 52 51 46 40 35 30 25 19 15 13 10 7 5 5 5 7 7 5 4 3 3 4 4 5 6 6 6

GEFSSGP_con_prob3kmehi_222.txt.gz
EHI
4 2 1 0 0 0 0 0 0 0 0 0 0 0 0 0 0 0 0 0 0 0 0 0 0 0 0 0 0 0 0 1 2 3 4 4 3 1 0 1 1 0 0 0 0 0 0 0 0
1 1 0 0 0 0 0 0 0 0 0 0 0 0 0 0 0 0 0 0 0 0 0 0 0 0 0 0 0 0 0 1 2 3 3 3 2 1 0 1 1 0 0 0 0 0 0 0 0
0 0 0 0 0 0 0 0 1 1 0 0 0 0 0 0 0 0 0 0 0 0 0 0 0 0 0 0 0 0 0 0 1 2 3 3 2 0 0 1 1 0 0 0 0 0 0 0 0
0 0 0 0 0 0 0 1 2 1 0 0 0 0 0 0 0 0 0 0 0 0 0 0 0 0 0 1 1 0 0 0 0 1 1 2 1 0 0 0 0 0 0 0 0 0 0 0 0
0 0 0 0 0 0 0 1 1 1 0 0 0 0 0 0 0 0 0 0 0 0 0 0 0 0 0 1 1 0 0 0 0 0 0 1 1 0 0 0 0 0 0 0 0 0 0 0 0
0 0 0 0 0 0 0 0 1 0 0 0 0 0 0 0 0 0 0 0 0 0 0 0 0 0 0 1 1 0 0 0 0 0 0 0 0 0 0 0 0 0 0 0 0 0 0 0 0
0 0 0 0 0 0 0 0 1 0 0 0 0 0 0 0 0 0 0 0 0 0 0 0 0 0 0 0 0 0 0 1 1 0 0 0 0 0 0 0 0 0 0 0 0 0 0 0 0
0 0 0 0 0 0 0 0 0 0 0 0 0 0 0 1 1 0 0 0 0 0 0 0 0 0 1 1 1 1 1 2 2 1 0 0 0 0 0 0 0 0 0 0 0 0 0 0 0
0 0 0 0 0 0 0 0 0 0 0 0 0 0 2 4 3 1 0 0 0 0 0 0 0 0 1 2 2 2 2 2 2 1 0 0 0 0 0 0 0 0 0 0 0 0 0 0 0
0 0 0 0 0 0 0 0 0 0 0 0 1 3 7 9 8 4 1 0 0 0 0 0 0 0 1 2 2 2 2 1 1 1 0 0 0 0 0 0 0 0 0 0 0 0 0 0 0
0 0 0 0 0 0 0 0 0 0 0 0 3 9 14 14 11 6 1 0 0 0 0 0 0 0 0 1 1 1 1 0 0 0 0 0 0 0 0 0 0 0 0 0 0 0 0 0 0
0 0 0 0 0 0 0 0 0 0 0 2 7 14 17 15 11 5 1 0 0 0 0 0 1 1 1 1 0 0 0 0 0 0 0 0 0 0 0 0 0 0 0 0 0 0 0 0 0
0 0 0 0 0 0 0 0 0 0 0 3 10 15 16 13 9 4 1 0 0 0 0 0 1 2 2 1 0 0 0 0 0 0 0 0 0 0 0 0 0 0 0 0 0 0 0 0 0
0 0 0 0 0 0 0 0 0 0 1 4 9 12 12 10 7 5 3 1 1 0 0 0 1 2 3 1 0 0 0 0 0 0 0 0 0 0 0 0 0 0 0 0 0 0 0 0 0
0 0 0 0 0 0 0 0 0 0 1 3 6 8 9 8 8 6 4 2 1 1 0 0 1 3 2 1 0 0 0 0 0 0 0 0 0 0 0 0 0 0 0 0 0 0 0 0 0
0 0 0 0 0 0 0 0 0 0 1 3 6 7 7 7 6 5 4 3 2 2 2 2 2 3 2 1 0 0 0 0 0 0 0 0 0 0 0 0 0 0 0 0 0 0 0 0 0
0 0 0 0 0 0 0 0 0 0 1 3 5 8 7 6 6 6 5 5 5 5 3 3 3 3 3 1 1 0 0 0 0 0 0 0 0 0 0 0 0 0 0 0 0 0 0 0 0
0 0 0 0 0 0 0 0 0 0 0 1 4 7 8 8 8 9 9 9 8 6 4 3 3 4 3 3 2 1 0 0 0 0 0 0 0 0 0 0 0 0 0 0 0 0 0 0 0
0 0 0 0 0 0 0 0 0 0 0 1 4 8 10 11 11 12 12 12 9 5 3 3 4 5 4 4 3 1 0 0 0 0 0 0 0 0 0 0 0 0 0 0 0 0 0 0 0
0 0 0 0 0 0 0 0 0 0 0 1 4 9 12 14 14 13 13 12 8 4 3 5 6 6 5 6 4 2 1 0 0 0 0 0 0 0 0 0 0 0 0 0 0 0 0 0 0
0 0 0 0 0 0 0 0 0 0 0 1 5 8 11 14 14 12 12 12 9 5 4 6 6 6 6 6 6 4 3 1 0 0 0 0 0 0 0 0 0 0 0 0 0 0 0 0 0
0 0 0 0 0 0 0 0 0 0 0 2 6 8 9 11 11 12 13 12 9 5 5 5 6 5 4 5 6 5 3 1 0 0 0 0 0 0 0 0 0 1 1 2 1 1 1 1 0
0 0 0 0 0 0 0 0 0 0 0 3 7 8 8 9 10 12 13 11 8 6 4 4 4 4 3 4 4 3 1 1 0 0 0 0 0 0 0 1 1 2 3 4 3 3 3 3 2
0 0 0 0 0 0 0 0 0 0 0 3 7 9 9 8 9 11 12 11 10 7 5 4 4 4 3 3 3 1 0 0 0 0 0 0 0 0 0 1 2 3 4 5 5 6 6 5 4
0 0 0 0 0 0 0 0 0 0 0 2 7 10 10 9 8 10 13 15 14 11 8 7 7 6 5 4 2 1 0 0 0 0 0 0 0 0 1 1 3 3 4 5 6 6 6 6 6
0 0 0 0 0 0 0 0 0 0 1 3 7 10 11 10 10 12 15 17 16 13 11 10 10 9 8 7 5 2 0 0 1 1 0 0 1 1 2 2 3 3 4 5 5 6 6 6 6
0 0 0 0 0 0 0 0 0 0 2 5 8 11 11 11 11 13 15 15 15 15 14 13 13 12 10 8 6 3 1 0 1 1 1 1 2 3 3 3 3 3 3 4 4 4 5 6 6
0 0 0 0 0 0 0 0 0 0 2 5 9 12 14 13 14 14 14 14 15 16 16 15 14 12 9 7 7 4 2 1 1 1 1 2 3 3 3 3 3 3 3 3 3 3 4 4 4
0 0 0 0 0 0 0 0 0 0 1 4 8 12 14 17 18 16 15 15 16 17 16 14 13 11 9 9 9 7 4 2 1 2 2 3 3 3 3 3 3 3 3 3 3 3 3 3 2
0 0 0 0 0 0 0 0 0 0 1 4 8 11 13 17 19 17 15 15 16 17 16 13 12 12 11 11 11 9 6 4 3 3 3 3 3 3 3 3 3 3 3 3 3 3 3 3 3

GEFSSGP_con_prob3kmehi_228.txt.gz
EHI
8 7 7 6 4 1 0 0 0 0 0 0 0 0 0 0 0 0 0 0 0 0 0 0 1 1 0 0 0 0 0 0 0 0 0 0 0 0 0 0 0 0 0 0 0 0 0 0 0
7 6 5 4 2 0 0 0 0 0 0 0 0 0 0 0 0 0 0 0 0 0 0 0 1 1 0 0 0 0 0 0 0 0 0 0 0 0 0 0 0 0 0 0 0 0 0 0 0
5 5 3 2 0 0 0 0 0 0 0 0 0 0 0 0 0 0 0 0 0 0 0 0 1 1 0 0 0 0 1 1 0 0 0 0 0 0 0 0 0 0 0 0 0 0 0 0 0
3 3 2 0 0 0 0 0 0 0 0 0 0 0 0 0 0 0 0 0 0 0 0 0 0 0 0 0 1 1 1 2 1 1 1 0 0 0 0 0 0 0 0 0 0 0 0 0 0
2 2 1 0 0 0 0 0 0 0 0 0 0 0 0 0 0 0 0 0 0 0 0 0 0 0 0 0 0 0 1 2 2 2 1 1 0 0 0 0 0 0 0 0 0 0 0 0 0
1 1 0 0 0 0 0 0 0 0 0 0 0 0 0 0 0 0 0 0 0 0 0 0 0 0 0 0 0 0 0 1 1 1 1 1 1 0 0 0 0 0 1 0 0 0 0 0 0
1 0 0 0 0 0 0 0 0 0 0 0 0 0 1 1 0 0 0 0 0 0 0 0 0 1 0 0 0 0 1 1 1 0 0 0 0 0 0 0 0 0 0 0 0 0 0 0 0
0 0 0 0 0 0 0 0 0 0 0 0 0 1 2 2 1 0 0 0 0 0 0 0 0 0 0 0 1 1 2 2 1 0 0 0 0 0 0 0 0 0 0 0 0 0 0 0 0
0 0 0 0 0 0 0 0 0 0 0 0 1 2 3 3 1 0 0 0 0 0 0 0 0 0 0 0 1 2 2 1 1 0 0 0 0 0 0 0 0 0 0 0 0 0 0 0 0
0 0 0 0 0 0 0 0 0 0 0 1 2 4 5 4 1 0 0 0 0 0 0 0 0 0 0 0 0 1 1 0 0 0 0 0 0 0 0 0 0 0 0 0 0 0 0 0 0
0 0 0 0 0 0 0 0 0 0 0 1 3 6 7 5 2 0 0 0 0 0 0 0 0 1 1 0 0 0 0 0 0 0 0 0 0 0 0 0 0 0 0 0 0 0 0 0 0
0 0 0 0 0 0 0 0 0 0 0 1 4 7 7 4 2 0 0 0 0 0 0 0 1 2 2 1 1 0 0 0 0 0 0 0 0 0 0 0 0 0 0 0 0 0 0 0 0
0 0 0 0 0 0 0 0 1 1 1 3 5 6 4 2 2 1 0 0 0 0 0 0 1 2 3 3 2 1 0 0 0 0 0 0 0 0 0 0 0 0 0 0 0 0 0 0 0
0 0 0 0 0 0 0 0 1 2 3 5 6 5 3 3 3 2 1 0 0 0 0 0 1 3 3 3 3 1 0 0 0 0 0 0 0 0 0 0 0 0 0 0 0 0 0 0 0
0 0 0 0 0 0 0 0 1 2 4 5 5 4 4 4 4 2 1 0 0 1 1 1 2 3 5 5 4 2 1 0 0 0 0 0 0 0 0 0 0 0 0 0 0 0 1 1 1
0 0 0 0 0 0 0 0 1 2 4 5 5 4 5 6 4 3 1 0 1 2 3 3 3 5 8 9 8 5 2 0 0 0 0 0 0 0 0 0 0 0 0 0 0 1 1 1 1
0 0 0 0 0 0 0 0 1 2 3 4 4 4 6 6 5 4 1 0 1 5 7 7 6 7 9 11 11 8 4 1 1 0 1 1 2 1 0 0 1 0 0 0 1 2 2 3 3
0 0 0 0 0 0 0 0 0 1 2 4 5 5 6 7 7 6 4 2 3 8 12 11 10 9 10 10 10 9 6 4 3 2 2 3 3 2 1 1 2 1 0 0 1 3 3 4 5
0 0 0 0 0 0 0 0 0 0 2 5 6 6 6 7 8 9 7 6 8 12 15 14 13 13 11 8 7 7 6 5 4 3 3 3 3 3 3 2 2 1 0 0 2 4 4 4 4
0 0 0 0 0 0 0 0 0 0 2 5 7 6 6 7 9 10 10 10 12 15 17 17 16 14 11 8 7 7 6 4 3 4 4 3 3 3 2 2 2 2 2 2 5 7 5 2 1
0 0 0 0 0 0 0 0 0 1 3 5 6 6 6 8 10 11 12 13 14 16 17 17 17 15 12 10 8 7 6 4 3 4 4 4 3 3 3 3 4 5 6 6 7 8 6 3 2
0 0 0 0 0 0 0 0 1 2 4 6 7 6 7 9 11 12 13 14 14 14 15 15 18 19 17 13 10 9 8 6 4 5 6 5 4 4 5 5 7 7 8 8 7 7 7 6 5
0 0 0 0 0 0 0 0 1 2 4 7 7 6 7 9 12 13 14 15 14 12 12 14 19 22 21 16 14 13 10 6 5 6 7 6 4 5 6 7 7 7 7 7 7 7 8 8 7
0 0 0 0 0 0 0 0 0 1 3 5 7 7 7 9 11 13 14 16 16 13 12 15 21 25 22 18 17 17 14 9 7 7 7 5 3 4 7 7 7 6 6 7 8 9 9 8 8
0 0 0 0 0 0 0 0 1 1 1 3 6 8 8 9 10 12 15 18 18 16 15 19 24 27 24 20 18 18 16 11 9 7 6 4 2 2 4 5 5 6 6 6 8 9 9 8 8
0 0 0 0 0 0 0 0 1 1 1 3 6 7 7 8 9 12 17 20 21 19 19 24 29 30 26 22 19 18 16 11 9 8 6 4 2 1 2 4 4 5 4 5 6 8 8 7 7
0 0 0 0 0 0 0 0 1 1 1 2 5 6 6 7 8 11 17 22 23 22 24 28 33 33 27 23 20 18 16 12 10 9 6 4 3 2 2 4 4 4 4 5 6 6 6 6 6
0 0 0 0 0 0 0 0 1 2 2 3 5 6 7 7 8 11 18 24 25 25 26 29 31 30 27 22 19 18 18 16 14 11 7 5 4 3 3 4 4 4 4 4 5 5 6 6 6
0 0 0 0 0 0 0 0 2 3 3 4 6 8 9 10 11 14 19 25 28 27 27 28 27 26 26 24 21 22 22 20 16 12 8 4 3 3 3 3 3 3 3 4 5 5 6 6 6
0 0 0 0 0 0 0 1 2 4 4 4 7 10 12 13 14 16 20 25 29 30 27 27 26 25 25 25 25 27 27 22 17 13 8 4 3 3 3 3 3 3 4 5 5 6 6 6 6

GEFSSGP_con_prob3kmehi_234.txt.gz
EHI
10 12 21 31 23 6 0 0 0 0 0 0 0 0 0 0 0 0 0 1 2 1 1 1 2 1 0 0 0 0 0 0 0 0 0 0 0 0 0 0 0 0 0 0 0 0 0 0 0
12 16 23 24 14 3 0 0 0 0 0 0 0 0 0 0 0 0 0 1 2 3 2 2 1 1 0 0 0 0 0 0 0 0 0 0 0 0 0 0 0 0 0 0 0 0 0 0 0
17 20 21 14 5 0 0 0 0 0 0 0 0 0 0 0 0 0 0 1 2 3 3 2 1 0 0 0 0 0 0 0 0 0 0 0 0 0 0 0 0 0 0 0 0 0 0 1 1
23 20 13 5 1 0 0 0 0 0 0 0 0 0 0 1 0 0 0 0 2 3 2 1 1 0 0 0 0 0 0 0 0 0 0 0 0 0 0 0 0 0 0 0 0 0 1 2 2
19 13 6 1 0 0 0 0 0 0 0 0 0 0 1 2 1 0 0 0 2 3 2 1 1 0 0 0 0 0 0 0 0 0 0 0 0 0 0 0 0 0 0 0 0 0 1 2 1
10 6 2 0 0 0 0 0 0 0 0 0 0 0 1 2 1 0 0 0 2 3 2 1 1 0 0 0 1 0 0 0 0 0 0 0 0 0 0 0 0 0 0 0 0 0 1 1 0
5 3 1 0 0 0 0 0 0 0 0 0 0 0 1 1 0 0 0 0 1 1 2 2 2 2 1 2 2 1 1 1 1 1 1 1 0 0 0 0 0 0 0 0 0 0 0 0 0
2 1 0 0 0 0 0 0 0 0 0 0 0 2 4 3 1 0 0 0 1 1 1 3 3 3 3 4 4 3 3 3 2 2 2 2 1 0 0 0 0 0 0 0 0 0 0 0 1
1 0 0 0 0 0 0 0 1 0 0 1 2 5 5 3 1 0 0 1 2 2 1 1 2 3 3 4 5 5 5 4 3 2 3 3 2 1 0 0 1 1 0 0 0 1 1 1 1
0 0 0 0 0 0 0 0 0 0 1 2 5 5 4 1 0 0 1 2 2 2 1 1 2 2 2 3 4 4 5 5 5 4 4 3 3 2 1 1 2 2 1 0 1 2 2 1 1
0 0 0 0 0 0 0 0 0 0 1 3 5 5 2 0 1 2 3 3 2 2 2 2 3 4 4 3 3 4 5 7 7 6 4 3 2 1 1 2 2 3 3 1 1 2 2 1 0
0 0 0 0 0 0 0 0 0 0 1 4 5 4 1 1 2 4 5 5 4 3 3 4 7 10 10 8 6 4 5 7 8 7 4 2 0 0 1 3 3 3 3 4 3 2 1 0 0
0 0 0 0 0 0 0 0 0 1 2 4 6 4 2 1 3 6 7 8 8 6 4 4 8 14 14 13 11 7 4 6 8 7 5 3 2 2 3 4 3 1 2 4 4 2 1 1 1
0 0 0 0 0 0 0 0 1 2 3 4 6 5 3 2 4 6 9 12 12 10 6 5 8 13 14 14 13 8 5 7 8 8 7 7 6 5 6 5 3 1 1 2 3 3 2 3 3
0 0 1 1 0 0 0 1 2 3 3 4 5 6 5 3 3 5 9 13 13 12 10 8 8 12 13 12 10 7 6 6 7 8 9 10 8 8 7 5 3 2 2 3 5 5 4 3 4
0 0 1 1 0 0 0 1 2 3 3 4 6 8 9 7 4 3 7 12 14 15 14 10 9 13 16 13 10 8 6 5 5 7 8 9 8 8 7 5 3 2 3 4 6 7 4 2 2
0 0 1 1 0 0 0 1 2 4 4 5 7 10 12 11 6 4 7 13 18 21 20 13 11 16 17 15 13 11 8 6 5 6 7 7 7 7 7 7 4 2 3 5 6 7 5 2 1
0 0 0 0 0 0 0 1 3 5 6 7 8 10 12 14 12 10 11 16 22 29 29 22 18 20 19 15 13 13 11 10 11 11 9 8 8 8 9 8 5 3 4 6 8 8 7 5 4
0 0 0 0 0 0 0 1 4 5 5 6 8 10 13 18 21 22 21 22 29 37 39 33 27 26 23 17 13 12 12 15 17 17 14 11 9 9 10 9 6 5 7 9 9 9 8 6 5
0 0 0 0 0 0 0 2 4 4 4 5 9 12 16 22 30 33 30 28 36 45 45 41 38 35 29 22 15 11 13 15 17 18 18 14 10 10 11 11 8 6 9 11 11 11 9 7 5
0 0 0 0 0 0 0 2 5 5 5 6 10 12 18 26 34 37 34 32 39 47 48 45 44 41 35 27 18 15 16 15 15 17 18 15 11 10 11 11 10 9 11 12 13 14 12 8 5
0 0 0 0 0 0 0 2 5 6 6 8 10 13 18 25 33 37 38 38 41 47 49 51 50 47 40 31 22 18 19 18 17 16 16 14 11 10 11 12 13 12 11 11 13 15 15 10 6
0 0 0 0 0 0 0 1 3 5 6 8 12 15 18 23 29 38 44 45 44 45 51 57 58 53 44 34 26 22 20 20 20 17 14 13 12 12 14 15 15 14 13 13 14 15 13 11 9
0 0 0 0 0 0 0 0 1 3 5 7 12 16 19 21 28 39 49 51 46 46 53 61 64 59 48 37 30 27 24 24 23 20 16 16 17 16 16 16 16 16 15 15 15 14 12 9 8
0 0 0 0 0 0 0 0 1 3 5 8 12 17 19 21 29 41 52 56 52 50 56 63 67 62 54 45 38 35 32 29 26 21 19 19 21 21 19 17 16 14 13 14 15 14 11 7 5
0 0 0 0 0 0 0 1 3 4 6 8 12 16 19 22 30 42 51 57 56 55 59 66 70 67 61 55 49 43 38 33 28 24 22 23 23 22 19 17 14 12 10 10 12 11 9 6 4
0 0 0 0 0 0 0 2 4 6 7 8 11 16 19 22 30 40 47 54 56 58 64 71 74 72 66 61 55 48 41 35 30 25 23 25 26 21 17 15 14 11 8 7 8 9 9 8 6
0 0 0 0 0 0 0 2 4 6 8 9 11 15 19 22 28 38 45 50 54 58 64 72 76 74 67 61 56 49 43 38 31 24 23 27 26 20 15 14 13 11 7 7 8 9 9 9 7
0 0 0 0 0 0 0 2 4 7 9 10 12 15 20 24 29 37 44 49 52 53 58 67 71 69 64 59 55 51 46 42 34 27 25 25 22 18 16 14 12 9 7 8 10 10 9 7 6
0 0 0 0 0 0 1 2 4 7 10 11 12 15 20 25 31 38 44 49 50 51 55 63 66 63 59 56 54 52 49 44 37 30 27 24 20 17 16 15 12 9 8 10 12 12 8 6 5

GEFSSGP_con_prob3kmehi_240.txt.gz
EHI
8 4 2 2 1 0 0 0 1 0 0 0 0 0 0 0 0 0 0 0 0 0 0 0 1 1 1 0 0 0 0 0 0 0 1 0 0 1 3 3 3 2 1 1 2 3 2 1 0
4 3 2 1 0 0 0 1 1 1 0 0 0 0 0 0 0 0 0 0 0 0 0 1 1 1 1 0 0 0 0 0 0 1 1 1 1 2 3 3 3 2 1 1 1 2 1 0 0
4 4 4 2 0 0 0 1 1 1 0 0 0 0 0 0 0 1 1 1 0 0 0 1 1 1 0 0 0 0 0 0 0 1 2 1 1 2 2 2 2 2 2 1 1 1 0 0 0
5 6 5 1 0 0 0 0 0 0 0 0 0 0 0 0 1 3 3 2 1 0 0 0 1 0 0 0 0 1 0 0 0 1 1 1 0 1 1 1 2 2 1 1 1 0 0 0 0
5 5 3 0 0 0 0 0 0 1 1 0 0 0 0 1 3 5 5 3 1 0 0 1 1 1 0 0 0 1 1 0 0 1 1 0 0 0 0 1 1 1 0 0 0 0 0 0 0
4 3 1 0 0 0 0 0 1 2 2 1 0 0 0 1 4 6 5 3 1 0 0 1 1 1 0 0 0 1 1 0 0 1 1 1 0 0 0 0 0 0 0 0 0 0 0 0 0
3 2 1 0 0 0 0 0 1 3 3 2 0 0 0 0 2 5 6 4 1 0 0 0 0 0 0 0 0 1 1 0 0 0 0 1 1 0 0 0 0 0 0 0 0 0 0 0 0
2 1 0 0 0 0 0 0 1 3 5 3 1 0 1 1 3 6 7 5 2 0 0 0 0 0 0 0 0 0 1 0 0 0 0 0 0 0 0 0 0 0 0 0 0 0 0 0 0
1 1 0 0 0 0 0 0 1 4 5 4 2 1 3 4 5 7 8 6 2 0 0 0 0 0 0 0 0 0 0 0 0 0 0 0 0 0 0 0 1 1 0 0 0 0 1 0 0
0 0 0 0 0 0 0 0 1 4 5 4 3 3 6 8 7 7 7 5 3 1 0 0 0 0 0 0 0 0 0 0 0 0 0 0 0 0 0 0 1 1 0 0 0 0 0 0 0
0 0 0 0 0 0 0 0 1 3 4 4 3 4 6 8 7 6 5 4 3 1 0 0 0 0 1 1 1 1 0 0 0 0 0 0 0 0 0 0 1 1 0 0 0 0 0 0 0
0 0 0 0 0 0 0 0 1 2 3 4 4 5 5 6 6 5 4 3 1 1 1 0 0 1 2 3 2 1 0 0 0 0 0 0 0 0 0 0 0 0 0 0 0 0 0 0 0
0 0 0 0 0 0 0 0 1 3 4 5 6 5 5 6 7 5 3 1 1 2 2 1 1 2 3 4 3 1 1 1 0 0 0 0 0 0 0 0 0 0 0 0 0 0 0 0 0
1 1 0 0 0 0 0 1 2 4 7 8 7 5 4 7 10 9 5 3 4 5 4 3 3 3 3 4 3 2 2 2 1 0 0 0 0 0 0 0 0 0 0 0 0 0 0 0 0
2 1 0 0 0 0 0 1 3 6 8 8 6 4 5 9 13 13 10 7 7 8 8 6 4 3 3 3 2 2 2 2 1 0 0 0 0 0 0 0 0 0 0 0 0 0 0 0 0
1 1 0 0 0 0 0 1 3 5 7 6 4 4 7 11 14 15 14 11 9 9 9 7 5 4 3 3 1 0 1 1 1 0 0 0 0 0 0 0 0 0 0 0 0 0 0 0 0
0 0 0 0 0 0 0 0 1 4 6 5 4 6 9 11 14 17 18 14 10 8 7 5 5 5 4 3 1 0 0 0 0 1 1 1 1 1 1 0 0 0 0 0 0 0 0 0 0
0 0 0 0 0 0 0 0 1 3 6 7 7 8 10 12 15 17 18 16 12 10 8 7 7 6 6 5 2 0 0 0 1 2 2 2 2 2 2 1 1 1 1 1 0 0 0 0 0
0 0 0 0 0 0 0 1 2 3 6 8 10 10 11 13 16 17 17 17 16 14 13 12 10 9 7 5 2 0 0 0 1 1 2 3 3 3 3 3 2 2 2 2 1 0 0 0 0
0 0 0 0 0 0 0 1 2 3 6 9 11 11 12 14 18 18 19 21 22 20 19 18 15 12 9 6 2 0 0 0 1 1 1 2 3 4 4 4 3 3 3 3 2 1 1 1 0
0 0 0 0 0 0 0 1 2 3 6 8 10 10 13 16 19 20 21 25 27 26 25 21 17 14 10 7 4 2 1 1 2 2 1 1 3 5 5 4 4 4 4 5 3 2 2 2 1
0 0 0 0 0 0 0 0 1 3 5 8 9 10 14 18 21 21 22 27 29 28 27 23 19 15 10 6 6 4 2 1 2 2 1 1 3 5 5 4 5 5 6 6 4 3 3 3 3
0 0 0 0 0 0 0 0 1 3 5 8 11 14 17 20 21 21 22 25 27 28 28 26 21 16 11 7 6 5 3 2 3 2 1 0 1 3 3 4 5 6 6 6 5 4 3 3 3
0 0 0 0 0 0 0 0 1 2 4 7 11 17 21 22 21 20 22 25 27 30 33 32 27 20 14 10 8 6 5 4 4 3 1 0 0 1 2 4 5 4 4 5 5 4 3 3 3
0 0 0 0 0 0 0 0 2 3 4 6 10 18 24 25 22 20 23 29 32 36 42 42 33 25 19 14 11 9 7 6 5 3 2 1 1 0 1 3 3 3 3 4 4 3 3 3 3
0 0 0 0 0 0 0 1 3 4 5 6 10 17 24 26 25 23 26 32 37 43 49 49 40 30 23 17 13 10 8 6 4 3 3 2 1 1 1 2 2 2 3 3 3 3 3 2 2
0 0 0 0 0 0 0 1 3 6 6 8 11 15 19 23 24 25 27 31 36 44 50 51 44 35 27 20 16 12 9 7 5 4 4 3 2 2 2 2 1 2 3 3 3 3 2 1 1
0 0 0 0 0 0 0 1 3 6 7 8 10 11 14 18 21 24 26 28 33 40 46 49 46 38 28 22 18 15 13 11 8 6 6 5 4 4 3 1 1 2 3 3 3 3 1 0 0
0 0 0 0 0 0 0 0 2 5 8 9 8 10 14 18 21 23 26 27 31 38 45 48 46 38 28 21 18 17 16 14 12 9 7 6 5 5 3 1 1 2 3 3 3 2 1 0 0
0 0 0 0 0 0 0 0 1 6 9 9 8 9 13 19 22 24 26 27 30 38 46 49 46 38 28 21 18 17 17 15 14 12 9 6 6 6 4 2 1 2 3 3 3 2 1 0 0

GEFSSGP_con_prob3kmehi_246.txt.gz
EHI
6 2 0 0 0 0 0 0 0 0 0 0 0 0 0 0 0 0 0 0 0 0 1 2 3 2 1 0 0 0 0 0 1 0 0 0 0 0 0 0 0 0 0 0 1 2 4 3 3
2 1 0 0 0 0 0 0 0 0 0 0 0 0 0 0 0 0 0 0 0 0 0 1 3 3 1 0 0 0 0 1 1 1 0 0 0 0 0 0 0 0 0 0 1 2 3 2 1
0 0 0 0 0 0 0 0 0 0 0 0 0 0 0 0 0 0 0 0 0 0 0 1 3 2 1 0 0 0 0 1 1 1 0 0 0 0 0 0 0 0 0 0 1 1 1 1 0
0 0 0 0 0 0 0 0 0 0 0 0 0 0 0 0 0 0 0 0 0 0 0 1 2 1 0 0 0 0 0 0 0 0 0 0 0 0 0 0 0 0 0 0 1 0 0 0 0
0 0 0 0 0 0 0 0 0 0 0 0 0 0 0 0 0 1 0 0 0 0 0 1 1 1 0 0 0 0 0 0 0 0 0 1 1 1 1 1 0 0 0 0 1 0 0 0 0
0 0 0 0 0 0 0 0 0 0 0 0 0 0 0 0 0 0 0 0 0 0 0 0 0 0 0 0 0 0 0 0 0 0 0 0 1 1 2 1 0 0 1 1 1 0 0 0 0
0 0 0 0 0 0 0 0 0 0 0 0 0 0 0 0 0 0 0 0 0 0 0 0 0 0 0 0 0 0 0 0 0 0 0 1 1 1 2 1 0 0 1 1 1 0 0 0 0
0 0 0 0 0 0 1 2 1 0 0 0 0 0 0 1 1 1 0 0 0 0 0 0 0 0 0 0 0 0 0 0 0 0 0 1 1 1 0 0 0 0 1 1 0 0 0 0 0
0 0 0 0 0 0 1 2 3 2 0 0 0 0 2 4 4 2 0 0 0 0 0 0 0 0 0 0 0 0 0 0 0 0 0 1 1 0 0 0 0 0 0 0 0 0 0 0 0
0 0 0 0 0 0 0 2 5 4 1 0 0 1 4 5 4 2 0 0 0 0 0 0 0 0 0 0 0 0 0 0 0 0 0 0 0 0 0 0 0 0 0 0 0 0 0 0 0
0 0 0 0 0 0 0 1 4 4 1 0 1 2 4 3 2 0 0 0 0 0 0 0 0 0 0 0 0 0 0 0 0 0 0 0 0 0 0 0 0 0 0 0 0 0 0 0 0
0 0 0 0 0 0 0 1 2 2 1 0 1 2 2 2 1 0 0 0 0 0 0 0 0 0 0 0 0 0 0 0 0 0 0 0 0 0 0 0 0 0 0 0 0 0 0 0 0
0 0 0 0 1 0 0 0 1 1 0 0 1 1 1 1 0 0 0 0 0 0 0 0 0 0 0 0 0 0 0 0 0 0 0 0 0 0 0 0 0 0 0 0 0 0 0 0 0
0 0 0 0 0 0 0 0 0 0 0 0 0 0 0 0 0 0 0 0 0 0 0 1 1 1 1 0 0 0 0 0 0 0 0 0 0 0 0 0 0 0 0 0 0 0 0 0 0
0 0 0 0 0 0 0 0 0 0 0 0 0 0 0 0 0 0 0 1 1 1 1 2 2 2 2 1 0 0 0 0 0 0 0 0 0 0 0 0 0 0 0 0 0 0 0 0 0
0 0 0 0 0 0 0 0 0 0 0 0 0 0 0 0 0 0 2 3 3 2 2 3 3 3 2 1 0 0 0 0 0 0 0 0 0 0 0 0 0 0 0 0 0 0 0 0 0
0 0 0 0 0 0 0 0 0 0 0 0 0 0 0 1 2 3 5 6 4 3 3 3 3 3 2 1 0 0 0 0 0 0 0 0 0 0 0 0 0 0 0 0 0 0 0 0 0
0 0 0 0 0 0 0 0 0 0 0 0 0 0 1 2 5 8 10 9 6 5 4 3 3 3 2 1 0 0 0 0 0 0 0 0 0 0 0 0 0 0 0 0 0 0 0 0 0
0 0 0 0 0 0 0 0 0 0 0 0 0 0 1 3 6 10 11 10 8 6 4 3 3 3 2 1 0 0 0 0 0 0 0 0 0 0 0 0 0 0 0 0 0 0 0 0 0
0 0 0 0 0 0 0 1 0 0 0 0 0 1 2 4 7 10 11 10 9 7 5 3 3 3 1 0 0 0 0 0 0 0 0 0 0 0 0 0 0 0 0 0 0 0 0 0 0
0 0 0 0 0 0 0 0 0 0 0 0 0 1 2 4 7 10 11 10 10 8 5 4 4 3 1 0 0 0 0 0 0 0 0 0 0 0 0 0 0 0 0 0 0 0 0 0 0
0 0 0 0 0 0 0 0 0 0 0 0 0 1 3 4 7 11 11 10 10 8 6 5 5 4 1 0 0 0 0 0 0 0 0 0 0 0 0 0 0 0 0 0 0 0 0 0 0
0 0 0 0 0 0 0 0 0 0 0 0 1 2 3 4 7 10 11 10 10 10 8 6 5 3 2 1 1 1 1 0 0 0 0 0 0 0 0 0 0 0 0 1 1 0 0 0 0
0 0 0 0 0 0 0 0 0 0 0 0 1 4 4 4 5 8 10 10 11 12 10 7 4 3 3 2 2 2 2 1 0 0 0 0 0 0 0 0 0 0 1 2 2 1 0 0 0
0 0 0 0 0 0 0 0 0 0 0 0 1 4 5 4 5 8 10 11 14 14 12 8 6 5 4 3 3 3 2 1 0 0 0 0 0 0 0 0 0 1 2 3 3 2 1 0 0
0 0 0 0 0 0 0 0 0 0 0 0 1 3 4 6 7 9 11 14 16 17 14 11 8 6 4 3 3 2 1 0 0 0 0 0 0 0 0 0 0 1 2 2 3 3 2 1 0
0 0 0 0 0 0 0 0 0 0 0 0 0 2 4 6 7 9 12 15 17 17 15 11 8 6 5 4 3 2 0 0 0 0 0 0 0 0 0 0 0 0 1 1 1 2 2 1 0
0 0 0 0 0 0 0 0 0 0 0 0 1 3 5 6 7 8 11 15 17 16 13 10 6 5 5 4 3 2 1 1 1 1 0 0 0 0 0 0 0 0 0 0 1 2 1 0 0
0 0 0 0 0 0 0 0 0 0 0 1 2 3 4 6 7 8 11 16 18 17 13 8 5 3 3 4 4 3 3 3 3 2 1 1 0 0 0 0 0 0 0 1 1 1 0 0 0
0 0 0 0 0 0 0 0 0 0 1 2 3 3 4 5 8 10 13 17 19 18 14 8 4 3 3 3 4 4 5 6 6 4 3 2 1 0 0 0 0 0 0 1 2 1 0 0 0

GEFSSGP_con_prob3kmehi_252.txt.gz
EHI
13 7 4 5 2 0 0 0 0 0 0 0 0 0 0 0 0 0 0 0 0 0 0 0 0 1 1 1 0 0 0 0 0 0 0 0 0 0 0 0 0 0 0 0 0 0 1 3 3
7 5 4 4 1 0 0 0 0 0 0 0 0 0 0 0 0 0 0 0 0 0 0 0 0 0 0 0 0 0 0 0 0 0 0 0 0 0 0 0 0 0 0 0 0 1 2 3 3
2 2 3 2 0 0 0 0 0 0 0 0 0 0 0 0 0 0 0 0 0 0 0 0 0 0 0 0 0 0 0 0 0 0 0 0 0 0 0 0 0 0 0 0 0 2 3 3 3
2 2 1 0 0 0 0 0 0 0 0 0 0 0 0 0 0 0 0 0 0 0 0 0 0 0 0 0 0 1 0 0 0 0 0 0 0 0 0 0 0 0 0 0 0 1 2 2 1
2 1 0 0 0 0 0 0 0 0 0 0 0 1 2 1 1 0 0 0 0 0 0 0 0 0 0 0 0 1 0 0 0 0 0 0 0 0 0 1 0 0 0 0 0 1 1 1 0
1 0 0 0 0 0 0 0 0 0 0 0 1 2 3 2 1 0 0 0 0 0 0 1 1 1 0 0 0 1 0 0 0 0 0 0 0 0 0 0 0 0 0 0 0 0 0 0 0
0 0 0 0 0 0 0 0 0 0 0 0 1 2 3 3 1 0 0 0 0 0 1 2 2 1 0 0 0 0 0 0 0 0 0 0 0 0 0 0 0 0 0 1 0 0 0 0 0
0 0 0 0 0 0 0 0 0 0 0 0 0 1 3 2 1 0 0 0 0 0 1 2 3 2 2 1 0 0 0 1 0 0 0 0 0 0 0 0 0 0 0 0 0 0 0 0 0
0 0 0 0 0 0 0 0 0 0 0 0 1 1 3 2 1 0 0 0 0 0 1 2 3 4 3 2 0 0 0 0 0 0 0 0 0 0 0 0 0 0 0 0 0 0 0 0 0
0 0 0 0 0 0 0 0 0 0 0 1 2 3 3 2 1 0 0 0 0 0 0 1 3 3 3 2 1 0 0 0 0 0 0 0 0 0 0 0 0 0 0 0 0 0 0 0 0
0 0 0 0 0 0 0 0 0 0 0 2 3 4 4 2 1 0 0 0 0 0 0 1 2 3 3 2 1 0 0 0 0 0 0 0 0 0 0 0 0 0 0 0 0 0 0 0 0
0 0 0 0 0 0 0 0 0 0 1 2 4 5 4 2 1 0 0 0 0 0 0 0 1 3 3 3 1 0 0 0 0 0 0 0 0 0 0 1 1 0 0 0 0 1 0 0 0
0 0 0 0 0 0 0 0 0 0 1 3 4 3 2 1 0 0 0 0 0 0 0 0 1 3 4 3 2 0 0 0 0 0 0 0 0 0 0 1 1 0 0 0 0 0 0 0 0
0 0 0 0 0 0 0 0 0 1 2 3 3 2 1 0 0 0 0 0 0 1 1 2 2 3 4 3 2 0 0 0 0 0 0 0 0 0 0 1 1 0 0 0 0 0 0 0 0
0 0 0 0 0 0 0 0 0 1 2 3 3 1 0 0 0 0 0 0 0 1 3 3 3 4 4 2 1 0 0 1 0 0 0 0 0 0 0 0 0 0 0 0 0 0 0 0 0
0 0 0 0 0 0 0 0 0 1 1 3 3 2 1 0 0 0 0 0 1 2 5 5 4 5 5 3 1 0 0 0 0 0 0 0 0 0 1 1 1 0 1 0 0 1 1 1 1
0 0 0 0 0 0 0 0 0 0 1 2 2 2 2 2 2 1 1 1 3 5 7 6 6 6 5 3 1 0 0 0 0 0 0 0 0 0 2 2 1 0 0 0 1 2 4 3 2
0 0 0 0 0 0 0 0 0 0 0 1 1 2 3 4 4 3 3 4 6 8 9 8 7 6 5 3 2 1 0 0 0 0 0 0 0 0 1 2 2 0 0 1 1 3 4 4 4
0 0 0 0 0 0 0 0 0 0 0 0 0 1 3 4 4 5 6 7 9 11 12 11 9 7 7 6 4 2 1 0 0 0 0 0 0 0 1 2 2 1 1 2 3 3 4 4 4
0 0 0 0 0 0 0 0 0 0 0 0 0 1 2 3 5 7 9 10 12 14 14 14 12 10 10 9 6 3 1 0 0 0 0 0 0 0 0 1 2 3 3 3 3 4 4 4 4
0 0 0 0 0 0 0 0 0 0 0 0 0 0 1 3 6 9 10 12 14 16 16 15 15 13 12 10 7 4 3 1 0 0 0 0 0 0 0 1 2 4 4 4 3 3 4 4 4
0 0 0 0 0 0 0 0 0 0 0 0 1 1 1 2 6 9 10 12 14 15 15 17 17 14 12 10 8 5 4 2 1 0 0 0 0 0 0 1 2 3 4 4 3 2 3 3 3
0 0 0 0 0 0 0 0 0 1 0 0 1 1 1 3 6 9 10 11 13 13 14 16 17 15 12 11 8 5 4 3 2 0 0 0 0 0 0 0 1 2 3 3 3 3 3 3 2
0 0 0 0 0 0 0 0 0 0 0 0 1 2 2 4 7 10 12 12 12 13 14 16 17 15 12 10 8 5 4 4 3 1 0 0 1 1 0 0 1 1 3 3 4 4 4 3 3
0 0 0 0 0 0 0 0 0 0 0 0 1 3 5 6 9 12 13 14 13 13 14 16 18 18 15 11 8 6 5 5 4 2 0 0 1 1 1 1 1 1 2 3 3 4 4 4 4
0 0 0 0 0 0 0 0 0 0 0 1 1 4 6 8 10 12 12 13 14 15 16 19 21 22 20 15 10 7 6 4 3 2 1 1 2 1 0 0 0 0 1 1 2 3 4 4 4
0 0 0 0 0 0 0 0 0 0 1 2 3 3 5 8 10 12 11 11 13 14 17 20 23 25 23 17 12 9 7 4 3 4 3 3 3 2 1 0 1 1 0 0 1 3 4 5 4
0 0 0 0 0 0 0 0 0 0 1 2 3 3 5 7 10 11 10 10 12 14 17 20 23 25 24 20 15 11 9 7 6 6 6 6 7 7 6 5 4 2 1 0 1 3 5 5 5
0 0 0 0 0 0 0 0 0 1 1 2 4 5 7 9 10 10 10 12 15 17 18 21 23 24 24 22 17 14 12 10 9 9 8 10 12 13 12 11 8 5 3 2 3 4 4 5 5
0 0 0 0 0 0 0 0 0 1 1 2 4 6 9 10 10 9 11 15 18 20 20 21 24 25 24 21 18 16 15 14 11 9 9 11 14 15 14 13 11 7 4 4 5 4 4 5 5

GEFSSGP_con_prob3kmehi_258.txt.gz
EHI
13 19 30 37 25 7 1 0 0 0 0 0 0 0 0 0 0 0 1 2 4 3 1 0 0 0 0 1 2 2 1 0 0 0 0 0 0 0 0 0 0 1 2 1 1 1 2 2 1
18 25 32 31 17 4 0 0 0 0 0 0 0 0 0 0 0 0 1 2 4 3 2 1 0 0 0 0 1 1 0 1 1 1 1 0 0 0 0 0 0 1 2 2 1 2 3 2 1
24 27 27 18 7 1 0 0 0 0 0 0 1 1 0 0 0 0 1 2 4 4 3 2 0 0 1 0 0 0 1 2 2 2 1 0 0 0 0 0 0 1 2 2 1 1 2 2 1
26 24 17 8 2 0 0 0 0 0 0 1 2 2 1 1 0 1 2 2 3 4 3 2 1 0 0 0 0 0 1 2 2 2 1 0 0 0 0 0 0 1 1 1 1 0 1 1 1
24 18 9 3 0 0 0 0 0 0 0 1 3 3 3 2 1 1 2 2 3 4 3 3 2 1 1 1 1 0 0 1 1 1 0 0 0 0 0 0 0 1 1 1 1 1 0 0 0
17 11 4 1 0 0 0 0 0 0 0 2 3 3 3 2 1 0 1 2 2 3 4 4 4 3 3 3 2 1 0 1 2 2 1 0 0 0 0 0 0 0 1 1 1 1 0 0 0
10 5 1 0 0 0 0 0 0 0 0 1 2 3 3 2 1 1 2 2 1 2 3 3 3 4 5 4 3 1 1 3 5 5 3 2 1 0 0 0 0 0 0 0 1 1 0 0 0
4 2 0 0 0 0 0 0 0 0 0 0 1 3 3 2 1 2 3 2 1 1 2 3 4 4 5 4 4 4 3 3 4 5 4 2 1 0 0 0 0 0 0 0 0 0 0 0 1
1 0 0 0 0 0 0 0 0 1 1 1 1 3 3 2 2 2 2 2 2 2 2 3 4 4 3 4 5 6 4 3 3 3 3 2 1 1 0 0 1 1 1 1 1 1 1 1 2
0 0 0 0 0 1 0 0 0 0 1 2 3 3 2 2 2 2 1 1 1 2 3 3 4 3 2 2 4 4 3 3 2 3 4 3 2 1 0 1 3 3 3 3 3 2 2 2 2
0 0 0 0 0 0 0 0 0 0 1 3 3 2 1 1 2 1 0 0 1 2 2 2 3 3 3 2 1 1 2 3 3 4 6 5 3 1 1 2 4 4 4 4 4 4 2 1 1
0 0 0 0 0 0 0 0 0 1 3 3 2 1 1 0 0 0 0 1 2 2 1 1 2 4 5 4 2 1 1 2 3 4 6 5 2 2 3 3 3 4 4 4 4 4 2 1 1
0 0 0 0 0 0 0 0 0 2 4 4 2 1 1 1 0 0 1 2 4 4 2 1 2 5 8 9 7 3 1 1 1 3 5 5 4 3 3 3 3 2 2 3 4 2 2 1 1
0 0 0 0 0 0 0 0 1 2 4 4 2 2 2 1 1 1 1 3 5 5 3 2 4 8 11 12 10 5 2 2 2 3 5 5 5 6 6 5 3 3 3 4 3 2 1 2 2
0 0 0 0 0 0 0 0 1 2 2 1 2 3 4 3 3 2 3 3 5 7 6 4 7 11 13 13 10 6 3 3 4 5 6 6 5 7 8 6 4 4 5 6 4 3 2 2 2
0 0 0 0 0 0 0 0 1 1 1 0 1 4 5 5 4 3 3 4 7 10 10 8 10 14 15 13 10 6 5 6 6 6 6 6 5 6 7 6 5 5 6 7 5 3 3 3 3
0 0 0 0 0 0 0 0 1 1 1 2 2 4 6 7 5 4 4 7 12 15 15 13 13 15 16 13 10 8 8 9 7 6 6 7 6 5 5 5 5 5 6 6 4 4 4 5 5
0 0 0 0 0 0 0 0 0 1 2 3 4 6 7 8 8 6 6 11 17 22 24 20 17 17 17 16 14 11 9 8 8 8 8 8 6 5 5 5 5 5 5 5 4 5 6 6 6
0 0 0 0 0 0 0 0 0 0 1 4 7 8 9 11 13 13 12 16 22 29 32 28 22 21 20 19 18 14 9 8 10 11 11 8 5 5 6 6 5 5 6 7 6 6 7 7 6
0 0 0 0 0 0 0 0 0 1 2 4 7 9 10 14 19 21 19 21 27 34 37 33 27 24 21 20 18 13 9 8 10 13 13 9 5 5 7 6 6 5 7 9 7 6 6 6 5
0 0 0 0 0 0 0 0 1 2 2 4 7 8 9 13 21 26 25 25 29 36 37 34 32 28 20 17 15 12 8 7 8 14 16 12 9 8 8 7 7 7 8 9 9 8 7 6 6
0 0 0 0 0 0 0 0 1 3 4 4 5 7 7 10 18 25 27 28 31 35 36 38 38 31 19 13 12 10 8 6 7 13 17 17 15 13 11 10 10 10 9 9 10 9 8 8 6
0 0 0 0 0 0 0 0 2 6 7 5 4 6 6 9 16 22 28 32 32 32 35 40 41 33 20 12 10 9 8 7 8 11 14 18 20 18 15 13 13 12 11 10 10 9 9 8 6
0 0 0 0 0 0 0 0 3 7 8 6 5 6 7 9 14 21 28 34 33 31 33 39 43 37 26 16 11 10 9 8 7 8 12 17 21 22 19 15 13 12 12 11 10 9 9 8 6
0 0 0 0 0 0 0 0 2 5 6 6 6 6 7 9 13 20 29 35 36 33 35 41 46 43 34 24 16 14 12 9 8 9 12 15 20 24 23 19 14 10 9 10 9 8 9 8 7
0 0 0 0 0 0 0 0 1 2 4 5 4 5 7 9 13 20 28 35 37 37 39 45 49 46 41 34 27 23 19 16 16 17 16 16 18 23 25 22 16 10 7 7 7 8 9 8 7
0 0 0 0 0 0 0 0 1 2 4 4 3 3 6 9 12 19 27 33 36 38 42 47 50 49 45 42 37 33 29 26 25 25 23 20 19 20 23 22 17 13 10 9 9 9 9 8 8
0 0 0 0 0 0 0 1 2 3 4 4 4 5 6 9 12 18 26 32 35 37 41 47 51 50 46 43 40 38 35 30 26 27 26 24 22 20 21 21 19 17 16 16 14 13 12 11 10
0 0 0 0 0 0 0 1 2 2 3 3 5 8 9 10 13 18 27 33 35 36 39 46 52 51 44 41 41 39 36 32 26 25 26 26 25 24 23 20 19 20 22 22 19 16 14 12 11
0 0 0 0 0 0 0 1 2 1 1 3 6 10 11 12 14 20 27 34 35 35 38 43 51 50 43 41 41 38 36 33 28 25 26 26 27 28 25 20 19 20 24 25 21 16 13 12 12